Wind_Speed
44 46 47 45 46 47 50 53 55 59 54 56 49 33 33 32 33 31 29 32 32 32 30 31 33 36 40 38 36 38 40 42 46 43 41 45 47 50 55 50 55 53 46
50 46 43 44 47 46 48 50 58 58 55 56 50 39 34 36 36 32 36 31 32 31 27 31 34 36 36 38 40 42 42 41 45 44 37 46 54 58 58 56 44 57 60
50 48 43 44 46 45 47 55 58 60 58 58 57 43 38 38 37 37 36 29 36 31 33 31 31 35 38 39 43 47 48 51 52 51 51 43 63 60 64 60 57 55 59
51 47 45 52 47 46 50 57 58 60 59 61 56 47 44 40 37 37 34 34 38 33 34 38 35 43 43 42 43 47 47 43 52 58 62 64 66 68 66 65 67 70 68
49 47 52 54 52 53 55 56 58 63 64 63 58 47 49 43 41 37 38 35 37 40 43 46 46 47 49 40 32 34 38 41 37 44 53 56 56 59 68 70 71 67 70
54 53 53 51 56 55 57 58 58 65 66 63 56 52 54 45 42 40 42 43 42 45 47 48 46 47 52 44 40 40 46 54 53 51 55 51 52 54 58 66 61 71 77
60 59 60 66 64 66 63 60 62 65 67 65 56 54 53 51 47 46 46 48 47 48 52 53 54 55 54 52 52 53 51 60 54 58 60 61 65 70 71 74 77 85 91
69 69 70 70 69 70 72 68 65 65 67 64 59 53 53 54 56 55 54 52 53 56 55 56 59 60 58 59 62 61 64 68 71 61 62 66 66 74 78 81 86 90 89
71 71 70 75 70 71 72 70 68 68 66 66 57 55 56 59 58 58 61 64 65 63 62 64 61 64 63 66 67 72 75 77 79 75 81 79 77 79 80 87 90 90 91
72 75 77 76 77 75 75 71 68 67 67 65 62 59 60 61 61 61 65 67 71 75 71 69 69 72 74 77 77 79 81 81 85 86 91 93 90 91 95 94 94 94 100
78 79 79 81 78 80 74 68 68 69 70 66 64 61 62 67 65 64 70 71 75 72 81 81 84 83 85 86 86 88 88 90 93 98 101 107 110 104 112 107 102 104 102
81 82 80 80 83 79 73 72 71 74 75 74 68 65 67 67 71 70 74 78 78 80 84 84 86 87 89 91 94 93 94 98 99 104 112 115 119 120 123 116 108 102 100
83 85 88 85 82 79 74 72 73 78 75 72 71 65 69 72 76 76 79 81 83 84 85 86 84 91 95 102 102 98 103 102 106 108 117 126 126 131 125 110 105 100 101
88 89 85 84 82 75 74 76 80 80 77 74 70 68 73 76 79 86 85 82 89 89 93 98 96 92 97 103 114 114 116 116 119 120 128 131 138 139 121 109 104 99 91
94 95 94 86 83 80 84 84 86 83 80 81 73 71 78 83 89 93 85 87 94 93 101 99 105 107 100 109 116 119 119 124 125 136 133 145 147 125 117 107 101 98 92
102 96 93 93 93 96 91 91 88 86 85 83 83 85 89 96 99 96 92 92 99 96 107 111 107 109 115 118 123 125 126 132 139 142 146 147 130 114 107 103 96 92 88
93 96 93 106 105 97 93 92 87 87 90 90 93 97 100 103 107 95 93 95 106 109 112 115 113 115 120 130 132 133 135 143 157 155 150 125 111 104 98 96 87 82 76
101 102 108 102 95 93 90 93 92 91 94 95 99 104 107 112 99 99 95 103 111 118 119 118 117 121 128 133 136 142 156 158 154 135 117 107 98 99 88 83 77 70 71
112 110 107 94 94 94 99 94 95 97 102 103 104 104 106 102 99 103 106 111 120 127 120 120 126 132 136 149 162 165 165 154 128 103 92 97 90 92 91 78 74 67 67
104 101 94 97 98 99 98 98 100 102 105 111 112 110 112 105 106 111 110 121 128 129 129 125 131 138 155 164 172 154 138 122 95 89 89 88 86 87 84 81 72 66 63
100 101 105 105 100 102 101 102 105 107 110 113 114 110 104 111 116 115 122 127 135 134 129 135 148 150 162 173 142 123 102 90 87 78 79 79 83 88 79 77 70 62 57
104 100 104 104 104 108 107 105 115 113 113 113 110 110 113 122 121 125 134 136 136 135 147 147 153 170 160 130 111 100 90 75 77 77 78 80 81 85 79 78 71 56 54
107 107 103 109 110 110 109 112 117 118 119 116 117 120 123 127 133 138 146 145 149 162 165 165 161 141 118 108 99 90 83 73 69 67 68 70 74 79 77 75 63 54 53
108 108 111 111 106 105 113 118 118 121 122 121 121 127 129 133 142 151 157 159 164 162 161 153 128 112 104 96 88 82 75 67 63 62 65 69 72 74 70 68 54 48 48
113 114 112 114 114 121 119 120 125 128 128 128 128 135 136 149 160 162 163 164 159 153 136 117 109 100 91 88 81 74 64 62 61 62 63 66 66 68 64 59 53 47 49
116 115 115 117 126 129 130 132 134 126 126 131 140 138 157 166 164 160 156 154 140 123 113 104 96 90 84 79 73 65 60 59 57 55 57 59 60 58 56 54 53 47 53
Wind_Direction
305 309 308 308 312 311 306 308 315 318 319 322 332 334 323 325 328 332 324 329 326 324 317 318 313 312 313 313 314 310 305 300 301 299 296 299 299 296 296 296 300 294 288
307 307 306 307 309 308 304 305 313 313 313 318 327 327 322 324 329 333 330 323 321 322 326 320 312 310 311 305 298 295 296 291 290 294 292 291 289 286 288 289 278 277 284
304 304 303 307 307 304 301 309 313 307 308 314 320 323 322 322 324 336 334 317 324 320 315 323 320 316 310 305 295 292 292 291 290 288 287 279 283 281 281 287 278 280 281
304 299 302 306 307 303 305 309 305 299 306 308 316 319 319 321 322 329 329 320 319 314 318 313 304 312 310 312 294 286 285 292 285 279 278 279 281 281 281 284 280 282 278
295 292 297 305 307 305 304 305 299 297 302 305 314 314 316 319 322 325 325 317 315 315 316 313 308 305 313 304 310 319 305 287 290 286 284 285 285 290 286 287 284 284 282
291 292 299 305 312 309 304 304 298 297 300 302 309 310 313 315 318 322 323 316 311 309 313 312 309 314 314 310 315 319 325 307 295 286 285 293 292 301 297 293 296 292 293
293 297 302 307 309 313 313 308 303 295 296 301 301 306 309 311 313 318 318 319 314 311 313 314 310 314 316 319 321 324 313 324 326 298 297 301 296 291 301 297 296 293 297
289 295 298 302 307 309 313 312 303 295 294 296 298 304 308 310 313 316 317 316 313 312 314 314 315 317 317 319 319 319 321 317 319 314 315 311 304 303 303 306 299 293 289
289 292 296 305 309 310 312 307 300 292 291 293 299 302 306 310 311 313 313 315 317 315 317 315 313 318 322 322 321 321 322 317 318 317 317 314 307 307 302 295 296 290 290
287 293 298 303 307 309 310 304 298 290 290 296 300 302 303 308 310 312 309 310 313 314 310 316 319 325 325 321 318 316 318 317 319 313 315 318 315 308 308 304 296 291 291
290 294 299 303 305 307 304 298 293 291 293 295 298 301 302 304 309 304 308 309 311 315 308 300 308 321 320 317 316 317 315 315 317 317 317 317 318 310 311 305 299 294 291
292 296 301 300 304 304 302 299 291 291 292 293 297 297 301 299 303 303 308 306 306 313 319 299 298 302 318 319 316 315 314 314 312 315 316 314 315 312 307 305 301 298 297
290 293 297 300 301 302 298 292 289 291 293 295 298 299 298 297 297 304 305 309 309 313 312 318 303 305 307 313 315 314 316 315 316 311 312 313 310 309 305 299 298 295 295
288 293 297 297 301 294 290 291 293 292 292 296 299 297 301 301 297 304 306 304 310 310 310 313 316 311 307 308 314 315 317 316 312 312 309 310 308 305 302 298 295 295 297
288 291 296 296 295 291 292 293 294 294 292 296 299 300 301 303 303 308 305 298 310 312 316 307 312 316 310 310 312 313 312 313 310 310 308 307 305 302 299 298 298 298 298
289 292 291 293 293 295 297 296 296 296 301 302 300 299 299 300 303 307 309 309 312 308 313 314 313 312 315 312 310 312 309 308 310 308 306 305 302 298 297 295 295 296 294
289 287 288 292 296 297 295 297 298 300 300 301 301 301 300 299 304 311 307 307 312 314 312 312 312 310 312 309 309 307 308 305 307 304 302 298 295 292 292 291 292 290 287
286 286 289 293 293 291 293 298 299 300 300 302 299 299 297 303 307 310 306 308 310 312 311 310 308 307 306 307 307 303 306 303 302 298 294 292 292 287 286 285 285 286 282
288 287 286 288 287 290 296 295 298 298 300 300 300 297 305 305 307 310 309 307 307 308 306 307 303 301 304 306 307 303 301 298 295 293 292 290 286 285 284 288 284 282 281
285 286 283 289 289 294 295 293 296 301 300 297 301 307 307 307 306 305 304 302 305 307 303 298 300 300 302 303 304 299 296 294 292 293 288 284 281 281 282 280 283 282 280
283 284 287 291 290 293 292 294 296 298 301 301 302 305 303 301 301 300 300 300 301 300 299 298 299 298 300 301 297 294 291 292 289 284 279 275 276 276 277 277 279 278 272
283 283 287 287 289 292 290 289 296 297 302 302 301 299 297 298 296 296 301 301 300 300 300 298 298 299 300 297 296 294 293 289 284 279 275 271 268 271 272 273 272 270 264
281 286 282 289 290 291 290 293 295 296 299 301 300 299 298 298 298 298 300 302 303 300 300 300 301 300 297 297 296 295 291 287 281 276 271 266 261 260 263 267 271 263 257
282 285 288 286 287 289 290 291 291 295 297 296 297 299 296 297 302 302 302 298 300 300 301 301 300 298 298 296 294 292 288 285 279 273 265 260 258 259 260 261 263 259 249
283 286 285 286 287 292 292 293 294 293 294 293 293 298 298 299 299 299 300 301 301 302 300 298 299 298 296 294 292 289 288 283 277 269 263 260 258 258 255 255 253 245 240
285 284 286 285 286 290 291 289 294 295 295 296 298 297 296 298 299 300 302 301 299 298 299 299 298 297 295 292 290 290 287 280 273 267 262 260 257 254 252 246 241 236 237
Height
10840 10838 10834 10832 10831 10829 10823 10816 10814 10811 10807 10803 10799 10795 10792 10789 10786 10782 10779 10774 10770 10766 10762 10759 10757 10755 10751 10748 10748 10746 10744 10741 10737 10736 10734 10731 10726 10724 10720 10718 10716 10710 10701
10831 10830 10827 10825 10822 10820 10816 10813 10809 10806 10801 10796 10793 10790 10787 10782 10777 10773 10770 10768 10764 10760 10756 10752 10750 10747 10745 10743 10740 10737 10736 10733 10729 10727 10726 10722 10717 10711 10709 10705 10705 10698 10690
10821 10821 10820 10818 10815 10812 10809 10807 10803 10798 10793 10789 10785 10782 10778 10774 10769 10764 10761 10758 10756 10752 10748 10744 10741 10738 10736 10732 10727 10724 10722 10720 10717 10715 10713 10711 10703 10698 10696 10691 10686 10683 10679
10812 10811 10810 10809 10807 10805 10802 10798 10794 10790 10785 10781 10776 10772 10768 10764 10760 10756 10752 10750 10747 10744 10741 10738 10733 10728 10724 10720 10713 10708 10705 10704 10702 10701 10699 10695 10691 10684 10680 10675 10670 10665 10660
10802 10804 10802 10801 10799 10797 10794 10790 10786 10780 10776 10772 10767 10762 10758 10754 10750 10747 10744 10741 10737 10734 10731 10728 10725 10719 10714 10708 10701 10697 10692 10689 10686 10683 10681 10675 10671 10668 10662 10658 10653 10644 10640
10788 10791 10792 10790 10787 10785 10783 10779 10777 10771 10765 10761 10755 10750 10748 10745 10741 10738 10734 10731 10727 10724 10719 10716 10712 10708 10703 10698 10694 10688 10682 10676 10671 10666 10662 10657 10652 10649 10642 10636 10631 10623 10618
10771 10773 10775 10775 10774 10772 10770 10767 10765 10760 10754 10749 10744 10739 10735 10733 10730 10727 10723 10719 10716 10712 10708 10704 10699 10694 10688 10683 10676 10672 10668 10663 10659 10654 10648 10642 10636 10629 10625 10616 10610 10603 10594
10760 10762 10761 10761 10760 10758 10756 10753 10750 10746 10740 10736 10732 10728 10724 10720 10716 10712 10709 10706 10703 10700 10695 10691 10686 10680 10673 10667 10662 10656 10651 10644 10637 10632 10629 10623 10616 10610 10604 10597 10589 10581 10575
10749 10748 10748 10746 10743 10742 10740 10738 10734 10731 10727 10722 10719 10716 10712 10707 10703 10698 10694 10689 10686 10683 10680 10675 10669 10662 10655 10649 10644 10637 10629 10624 10618 10610 10603 10596 10589 10583 10576 10569 10563 10555 10549
10735 10734 10733 10731 10729 10726 10725 10723 10719 10716 10711 10708 10705 10702 10698 10695 10690 10685 10680 10676 10671 10665 10662 10657 10650 10643 10637 10630 10625 10618 10611 10602 10595 10589 10581 10573 10564 10556 10548 10542 10537 10530 10522
10720 10720 10717 10716 10713 10712 10709 10706 10703 10699 10695 10691 10687 10685 10682 10679 10674 10670 10666 10661 10657 10651 10644 10639 10629 10623 10616 10610 10604 10596 10588 10580 10570 10562 10553 10543 10537 10530 10523 10517 10510 10500 10490
10704 10703 10702 10700 10697 10695 10693 10690 10687 10682 10678 10673 10670 10667 10664 10661 10657 10652 10648 10644 10638 10631 10624 10615 10606 10602 10595 10587 10580 10571 10562 10554 10543 10532 10525 10517 10509 10501 10492 10485 10476 10465 10455
10689 10687 10685 10683 10681 10677 10675 10673 10669 10665 10661 10657 10653 10649 10646 10642 10638 10633 10628 10622 10615 10607 10599 10591 10582 10574 10566 10557 10550 10542 10533 10525 10515 10508 10502 10493 10483 10470 10459 10452 10443 10434 10424
10671 10671 10668 10666 10662 10659 10657 10654 10652 10648 10643 10640 10635 10631 10627 10622 10617 10611 10605 10596 10588 10580 10573 10564 10554 10547 10537 10527 10517 10507 10496 10488 10485 10479 10473 10462 10450 10439 10421 10412 10404 10397 10390
10651 10650 10650 10647 10643 10640 10638 10636 10633 10628 10624 10620 10614 10611 10606 10601 10596 10586 10577 10570 10561 10552 10545 10535 10525 10516 10509 10499 10490 10479 10471 10467 10460 10446 10439 10428 10413 10395 10378 10375 10366 10363 10361
10631 10631 10629 10626 10624 10621 10618 10614 10609 10602 10595 10593 10591 10587 10581 10575 10570 10560 10548 10538 10532 10524 10515 10505 10493 10486 10478 10471 10461 10451 10445 10438 10429 10421 10408 10395 10374 10362 10355 10349 10343 10340 10335
10610 10609 10607 10604 10603 10598 10592 10586 10582 10577 10573 10570 10566 10561 10554 10546 10540 10527 10517 10507 10499 10491 10483 10476 10466 10458 10449 10444 10436 10425 10417 10407 10402 10390 10375 10358 10349 10335 10331 10325 10323 10318 10315
10586 10586 10585 10583 10579 10575 10568 10564 10558 10553 10548 10545 10540 10532 10525 10518 10504 10492 10482 10475 10471 10462 10458 10450 10440 10437 10429 10417 10408 10398 10390 10383 10374 10360 10341 10324 10317 10303 10303 10306 10302 10299 10295
10567 10566 10561 10557 10554 10549 10544 10539 10534 10529 10524 10518 10512 10506 10493 10482 10471 10462 10456 10449 10446 10441 10432 10424 10417 10410 10400 10390 10380 10366 10351 10347 10334 10321 10308 10287 10288 10278 10276 10277 10279 10278 10275
10540 10538 10534 10533 10529 10524 10517 10513 10508 10501 10498 10492 10477 10464 10457 10447 10441 10439 10437 10430 10424 10412 10407 10400 10391 10375 10370 10350 10336 10326 10309 10302 10293 10286 10279 10262 10260 10253 10253 10254 10257 10259 10258
10512 10510 10507 10504 10501 10495 10489 10484 10481 10475 10465 10456 10447 10437 10432 10428 10424 10416 10411 10404 10393 10385 10376 10366 10360 10340 10326 10316 10293 10282 10272 10265 10257 10251 10249 10242 10232 10226 10233 10231 10237 10241 10241
10487 10484 10479 10476 10470 10466 10462 10456 10451 10444 10437 10427 10422 10417 10407 10401 10393 10390 10382 10370 10359 10347 10339 10327 10319 10304 10278 10261 10249 10238 10232 10231 10225 10220 10218 10214 10208 10201 10206 10209 10217 10223 10224
10461 10458 10453 10450 10446 10440 10434 10428 10420 10416 10410 10402 10395 10390 10381 10370 10361 10352 10343 10331 10317 10309 10297 10282 10265 10248 10232 10219 10209 10204 10198 10198 10191 10190 10188 10185 10182 10181 10187 10190 10199 10204 10207
10437 10434 10430 10425 10420 10417 10413 10407 10398 10389 10383 10377 10367 10359 10351 10339 10324 10312 10302 10298 10282 10263 10250 10235 10220 10208 10195 10181 10174 10174 10170 10166 10161 10162 10161 10158 10157 10162 10169 10174 10182 10186 10192
10408 10404 10399 10394 10389 10385 10378 10372 10368 10362 10355 10346 10338 10328 10317 10308 10295 10284 10269 10254 10236 10218 10205 10192 10182 10171 10163 10152 10148 10146 10142 10137 10136 10136 10137 10137 10141 10146 10154 10159 10167 10173 10179
10376 10373 10370 10365 10361 10356 10349 10340 10334 10328 10320 10312 10304 10294 10288 10276 10259 10243 10227 10207 10191 10179 10166 10155 10148 10142 10134 10127 10122 10119 10117 10114 10113 10115 10117 10120 10125 10132 10138 10143 10152 10161 10167